Retour au catalogue

STARLINK-4011

ActifCommunicationsVLEO
NORAD 52615·PAYLOAD·🇺🇸 United States

Lancé May 14, 2022 depuis Cape Canaveral Space Force Station

Loading…

Prochains Passages (prochaines 24 heures)

TLE

FraisSource: CelesTrak SupGP

Époque: Sep 14, 2026, 22:12 UTC

1 52615C 22052T   26257.92548611 -.00031648  00000+0 -90570-3 0  2572
2 52615  53.1583 142.2386 0001263  83.8063 196.1915 15.35406856    18

Suivez STARLINK-4011 en temps réel avec AllMySat

Download on the App Store